When you browse on this site, cookies collect data to enhance your experience and personalize the content and advertising you see.
Visit our Privacy Policy to learn more. By continuing to use the site, you agree to this use of cookies and data.
  • Em Portugal
  • Lista de países
  • Para 7 dias
  • Temperatura da água
  • Mapas de satélite
  • Mapa do tempo
  • Widgets de tempo
  • user-avatar
    Iniciar Sessão

    Previsão horária em Bruxelas

    Hoje, 19 Dezembro, Quarta-feira

    Tempo Temperatura Precipitação Vento Pressão Humidade
    00:00 +4°C° 0 mm 7 m/s 754 mmHg 72%
    01:00 +5°C° 0.3 mm 7 m/s 754 mmHg 76%
    02:00 +5°C° 0.3 mm 6 m/s 753 mmHg 81%
    03:00 +5°C° 0.3 mm 6 m/s 753 mmHg 86%
    04:00 +5°C° 0 mm 6 m/s 754 mmHg 88%
    05:00 +6°C° 0 mm 5 m/s 754 mmHg 89%
    06:00 +6°C° 0 mm 4 m/s 754 mmHg 91%
    07:00 +6°C° 0 mm 5 m/s 754 mmHg 90%
    08:00 +6°C° 0 mm 5 m/s 755 mmHg 89%
    09:00 +5°C° 0 mm 6 m/s 755 mmHg 88%
    10:00 +7°C° 0 mm 6 m/s 755 mmHg 86%
    11:00 +7°C° 0 mm 6 m/s 755 mmHg 85%
    12:00 +7°C° 0 mm 6 m/s 755 mmHg 83%
    13:00 +7°C° 0 mm 5 m/s 755 mmHg 83%
    14:00 +7°C° 0 mm 4 m/s 754 mmHg 83%
    15:00 +7°C° 0 mm 4 m/s 754 mmHg 83%
    16:00 +7°C° 0 mm 4 m/s 754 mmHg 83%
    17:00 +7°C° 0 mm 4 m/s 754 mmHg 83%
    18:00 +7°C° 0 mm 4 m/s 754 mmHg 83%
    19:00 +6°C° 0.1 mm 4 m/s 754 mmHg 84%
    20:00 +6°C° 0.1 mm 4 m/s 754 mmHg 85%
    21:00 +6°C° 0.1 mm 4 m/s 754 mmHg 87%
    22:00 +6°C° 0.6 mm 4 m/s 754 mmHg 88%
    23:00 +6°C° 0.6 mm 5 m/s 754 mmHg 90%

    Amanhã, 20 Dezembro, Quinta-feira

    Tempo Temperatura Precipitação Vento Pressão Humidade
    00:00 +6°C° 0.6 mm 5 m/s 754 mmHg 92%
    01:00 +6°C° 0.1 mm 5 m/s 754 mmHg 91%
    02:00 +6°C° 0.1 mm 5 m/s 754 mmHg 91%
    03:00 +4°C° 0.1 mm 6 m/s 754 mmHg 90%
    04:00 +5°C° 0.1 mm 6 m/s 754 mmHg 89%
    05:00 +5°C° 0.1 mm 6 m/s 754 mmHg 88%
    06:00 +5°C° 0.1 mm 6 m/s 754 mmHg 87%
    07:00 +5°C° 0.1 mm 6 m/s 754 mmHg 86%
    08:00 +5°C° 0.1 mm 6 m/s 755 mmHg 86%
    09:00 +5°C° 0.1 mm 6 m/s 755 mmHg 85%
    10:00 +6°C° 0 mm 7 m/s 755 mmHg 83%
    11:00 +6°C° 0 mm 7 m/s 755 mmHg 82%
    12:00 +6°C° 0 mm 7 m/s 755 mmHg 80%
    13:00 +6°C° 0.2 mm 7 m/s 755 mmHg 80%
    14:00 +6°C° 0.2 mm 7 m/s 755 mmHg 81%
    15:00 +6°C° 0.2 mm 7 m/s 755 mmHg 81%
    16:00 +6°C° 0.1 mm 7 m/s 755 mmHg 81%
    17:00 +6°C° 0.1 mm 7 m/s 755 mmHg 80%
    18:00 +6°C° 0.1 mm 7 m/s 755 mmHg 80%
    19:00 +6°C° 0.1 mm 7 m/s 755 mmHg 80%
    20:00 +6°C° 0.1 mm 7 m/s 755 mmHg 80%
    21:00 +6°C° 0.1 mm 7 m/s 755 mmHg 80%
    22:00 +6°C° 0.2 mm 7 m/s 755 mmHg 82%
    23:00 +6°C° 0.2 mm 7 m/s 755 mmHg 84%

    Depois de amanhã, 21 Dezembro, Sexta-feira

    Tempo Temperatura Precipitação Vento Pressão Humidade
    00:00 +6°C° 0.2 mm 7 m/s 754 mmHg 87%
    01:00 +7°C° 1.7 mm 6 m/s 753 mmHg 89%
    02:00 +8°C° 1.7 mm 6 m/s 752 mmHg 90%
    03:00 +8°C° 1.7 mm 6 m/s 752 mmHg 92%
    04:00 +9°C° 2 mm 6 m/s 751 mmHg 92%
    05:00 +9°C° 2 mm 6 m/s 750 mmHg 92%
    06:00 +10°C° 2 mm 7 m/s 749 mmHg 91%
    07:00 +10°C° 1.7 mm 8 m/s 748 mmHg 90%
    08:00 +11°C° 1.7 mm 9 m/s 748 mmHg 89%
    09:00 +11°C° 1.7 mm 10 m/s 747 mmHg 87%
    10:00 +12°C° 0.4 mm 10 m/s 747 mmHg 87%
    11:00 +12°C° 0.4 mm 10 m/s 747 mmHg 86%
    12:00 +12°C° 0.4 mm 10 m/s 747 mmHg 85%
    13:00 +12°C° 0 mm 10 m/s 748 mmHg 81%
    14:00 +11°C° 0 mm 10 m/s 749 mmHg 77%
    15:00 +11°C° 0 mm 10 m/s 750 mmHg 73%
    16:00 +10°C° 0 mm 9 m/s 751 mmHg 75%
    17:00 +9°C° 0 mm 8 m/s 751 mmHg 77%
    18:00 +9°C° 0 mm 7 m/s 752 mmHg 79%
    19:00 +8°C° 0 mm 7 m/s 752 mmHg 81%
    20:00 +8°C° 0 mm 7 m/s 753 mmHg 82%
    21:00 +8°C° 0 mm 6 m/s 753 mmHg 84%
    22:00 +8°C° 0.3 mm 6 m/s 753 mmHg 86%
    23:00 +9°C° 0.3 mm 6 m/s 753 mmHg 88%

    22 Dezembro, Sábado

    Tempo Temperatura Precipitação Vento Pressão Humidade
    00:00 +9°C° 0.3 mm 6 m/s 752 mmHg 89%
    01:00 +9°C° 0.5 mm 7 m/s 752 mmHg 87%
    02:00 +9°C° 0.5 mm 8 m/s 752 mmHg 85%
    03:00 +10°C° 0.5 mm 8 m/s 752 mmHg 82%
    04:00 +8°C° 0.1 mm 9 m/s 753 mmHg 80%
    05:00 +8°C° 0.1 mm 9 m/s 753 mmHg 78%
    06:00 +8°C° 0.1 mm 10 m/s 753 mmHg 76%
    07:00 +8°C° 0.1 mm 9 m/s 755 mmHg 75%
    08:00 +7°C° 0.1 mm 9 m/s 756 mmHg 74%
    09:00 +7°C° 0.1 mm 8 m/s 757 mmHg 73%
    10:00 +7°C° 0 mm 8 m/s 757 mmHg 71%
    11:00 +9°C° 0 mm 8 m/s 758 mmHg 70%
    12:00 +9°C° 0 mm 8 m/s 759 mmHg 69%
    13:00 +9°C° 0.1 mm 6 m/s 759 mmHg 72%
    14:00 +9°C° 0.1 mm 5 m/s 759 mmHg 75%
    15:00 +8°C° 0.1 mm 4 m/s 760 mmHg 79%
    16:00 +8°C° 0.2 mm 4 m/s 760 mmHg 82%
    17:00 +8°C° 0.2 mm 4 m/s 760 mmHg 85%
    18:00 +8°C° 0.2 mm 4 m/s 761 mmHg 89%
    19:00 +8°C° 0.2 mm 4 m/s 761 mmHg 90%
    20:00 +8°C° 0.2 mm 4 m/s 761 mmHg 91%
    21:00 +7°C° 0.2 mm 4 m/s 761 mmHg 91%
    22:00 +7°C° 0.1 mm 4 m/s 762 mmHg 92%
    23:00 +8°C° 0.1 mm 3 m/s 762 mmHg 93%

    23 Dezembro, Domingo

    Tempo Temperatura Precipitação Vento Pressão Humidade
    00:00 +7°C° 0.1 mm 3 m/s 762 mmHg 94%
    01:00 +7°C° 0 mm 3 m/s 762 mmHg 94%
    02:00 +7°C° 0 mm 3 m/s 762 mmHg 94%
    03:00 +7°C° 0 mm 3 m/s 762 mmHg 95%
    04:00 +7°C° 0 mm 3 m/s 762 mmHg 94%
    05:00 +7°C° 0 mm 3 m/s 763 mmHg 94%
    06:00 +7°C° 0 mm 3 m/s 763 mmHg 94%
    07:00 +7°C° 0 mm 3 m/s 763 mmHg 93%
    08:00 +7°C° 0 mm 3 m/s 763 mmHg 92%
    09:00 +7°C° 0 mm 3 m/s 764 mmHg 92%
    10:00 +8°C° 0 mm 3 m/s 764 mmHg 89%
    11:00 +8°C° 0 mm 3 m/s 764 mmHg 86%
    12:00 +9°C° 0 mm 3 m/s 764 mmHg 83%
    13:00 +8°C° 0 mm 3 m/s 764 mmHg 85%
    14:00 +8°C° 0 mm 2 m/s 764 mmHg 87%
    15:00 +8°C° 0 mm 2 m/s 764 mmHg 89%
    16:00 +7°C° 0 mm 2 m/s 764 mmHg 90%
    17:00 +7°C° 0 mm 1 m/s 764 mmHg 92%
    18:00 +7°C° 0 mm 1 m/s 765 mmHg 94%
    19:00 +7°C° 0 mm 1 m/s 765 mmHg 93%
    20:00 +7°C° 0 mm 1 m/s 765 mmHg 93%
    21:00 +7°C° 0 mm 1 m/s 765 mmHg 93%
    22:00 +7°C° 0.3 mm 1 m/s 765 mmHg 93%
    23:00 +7°C° 0.3 mm 1 m/s 765 mmHg 93%

    24 Dezembro, Segunda-feira

    Tempo Temperatura Precipitação Vento Pressão Humidade
    00:00 +7°C° 0.3 mm 1 m/s 765 mmHg 93%
    01:00 +7°C° 0.2 mm 1 m/s 766 mmHg 93%
    02:00 +7°C° 0.2 mm 1 m/s 766 mmHg 93%
    03:00 +7°C° 0.2 mm 1 m/s 766 mmHg 93%
    04:00 +7°C° 0 mm 1 m/s 766 mmHg 93%
    05:00 +6°C° 0 mm 1 m/s 766 mmHg 93%
    06:00 +6°C° 0 mm 1 m/s 767 mmHg 93%
    07:00 +6°C° 0 mm 1 m/s 767 mmHg 92%
    08:00 +6°C° 0 mm 1 m/s 767 mmHg 92%
    09:00 +6°C° 0 mm 1 m/s 768 mmHg 91%
    10:00 +7°C° 0 mm 1 m/s 768 mmHg 87%
    11:00 +8°C° 0 mm 1 m/s 768 mmHg 82%
    12:00 +9°C° 0 mm 1 m/s 768 mmHg 78%
    13:00 +9°C° 0 mm 1 m/s 768 mmHg 80%
    14:00 +8°C° 0 mm 1 m/s 768 mmHg 82%
    15:00 +8°C° 0 mm 1 m/s 769 mmHg 84%
    16:00 +7°C° 0 mm 1 m/s 769 mmHg 86%
    17:00 +6°C° 0 mm 2 m/s 769 mmHg 87%
    18:00 +5°C° 0 mm 2 m/s 769 mmHg 89%
    19:00 +5°C° 0 mm 2 m/s 769 mmHg 88%
    20:00 +4°C° 0 mm 2 m/s 769 mmHg 88%
    21:00 +4°C° 0 mm 2 m/s 769 mmHg 88%
    22:00 +4°C° 0 mm 2 m/s 769 mmHg 87%
    23:00 +4°C° 0 mm 2 m/s 769 mmHg 87%
    Mostrar mais